Regional Weather Roundup
Issued by NWS Green Bay, WI

Home | Current Version | Previous Version | Text Only | Print | Product List | Glossary On
Versions: 1 2 3 4 5 6 7 8 9 10 11 12 13 14 15 16 17 18 19 20 21 22 23 24 25 26 27 28 29 30 31 32 33 34 35 36 37 38 39 40 41 42 43 44 45 46 47 48 49 50
000
ASUS43 KGRB 222259
RWRGRB

NORTH-CENTRAL AND NORTHEAST WISCONSIN REGIONAL WEATHER ROUNDUP
NATIONAL WEATHER SERVICE GREEN BAY WI
600 PM CDT MON SEP 22 2014

WIZ005-009-010>012-018-019-230000-
NORTH CENTRAL WISCONSIN

CITY           SKY/WX    TMP DP  RH WIND       PRES   REMARKS
IRONWOOD       CLEAR     66  52  59 W12       30.09F
MANITOWISH WTR NOT AVBL
ARBOR VITAE    NOT AVBL
EAGLE RIVER    NOT AVBL
LAND O LAKES   NOT AVBL
RHINELANDER    CLEAR     63  47  55 W6        30.16S
PHILLIPS       CLEAR     65  49  56 W5        30.15S
ANTIGO         NOT AVBL
TOMAHAWK       NOT AVBL
MERRILL        NOT AVBL
$$

WIZ013-073-230000-
NORTHEAST WISCONSIN

CITY           SKY/WX    TMP DP  RH WIND       PRES   REMARKS
IRON MOUNTAIN  CLEAR     66  47  50 W7        30.11S
MARINETTE      CLEAR     66  48  52 W5        30.12S
$$

WIZ017-030-035>037-045-230000-
CENTRAL WISCONSIN

CITY           SKY/WX    TMP DP  RH WIND       PRES   REMARKS
MEDFORD        NOT AVBL
WAUSAU         CLEAR     64  49  57 W9        30.16S
MOSINEE        CLEAR     63  52  67 W8        30.18F
MARSHFIELD     CLEAR     65  50  58 W8        30.18S
WISC RAPIDS    CLEAR     67  50  54 W10       30.19S
STEVENS POINT  NOT AVBL
WAUPACA        NOT AVBL
SHAWANO        CLEAR     67  48  51 SW8       30.15S
CLINTONVILLE   CLEAR     66  48  52 W8        30.16S
$$

WIZ038-039-048-051-230000-
FOX VALLEY

CITY           SKY/WX    TMP DP  RH WIND       PRES   REMARKS
NWS GREEN BAY  CLEAR     66  50  56 W9        30.16S
APPLETON       CLEAR     64  48  55 W8        30.17F
OSHKOSH        CLEAR     66  49  54 VRB7      30.17F
FOND DU LAC    CLEAR     66  48  52 W6        30.18F
$$

WIZ022-050-052-230000-
EAST CENTRAL WISCONSIN

CITY           SKY/WX    TMP DP  RH WIND       PRES   REMARKS
STURGEON BAY   CLEAR     64  48  55 W8        30.15R
MANITOWOC      NOT AVBL
SHEBOYGAN      CLEAR     65  48  54 W6        30.18F
$$

LMZ563-521-522-541>543-230000-
LAKESHORE

STATION/POSITION TIME  TEMP    WIND        PRES    VSBY  WAVE
                       AIR SEA DIR/SP/G                  HT/PER
                 (UTC) (F)     (DEG/KT/KT) (MB)    (MI)  (FT/S)
SHEBOYGAN LKSHOR 2200   58 54  170/ 13/ 16 1022.6F
KEWAUNEE LKSHORE 2200   66     250/  6/ 12 1020.0F
NORTHPORT PIER   2200   67     220/  3/  8 1019.6F
N MID LAKE BUOY  2200   58 57  210/ 14/ 16 1020.4S         2/ 4
S GREEN BAY BUOY 2200   63     VRB  8/ 10  1021.5F
CHAMBERS ISLAND  2200   65     210/  6/  9 1020.0S
MENOMINEE LKSHOR 2200   68     260/  9/ 12 1020.4F
$$


USA.gov is the U.S. government's official web portal to all federal, state and local government web resources and services.